Regional Weather Roundup
Issued by NWS Green Bay, WI

Home | Current Version | Previous Version | Graphics & Text | Print | Product List | Glossary Off
Versions: 1 2 3 4 5 6 7 8 9 10 11 12 13 14 15 16 17 18 19 20 21 22 23 24 25 26 27 28 29 30 31 32 33 34 35 36 37 38 39 40 41 42 43 44 45 46 47 48 49 50

000
ASUS43 KGRB 270010
RWRGRB

NORTH-CENTRAL AND NORTHEAST WISCONSIN REGIONAL WEATHER ROUNDUP
NATIONAL WEATHER SERVICE GREEN BAY WI
600 PM CST MON JAN 26 2015

WIZ005-009-010>012-018-019-270100-
NORTH CENTRAL WISCONSIN

CITY           SKY/WX    TMP DP  RH WIND       PRES   REMARKS
IRONWOOD       CLOUDY    21  19  93 S3        29.78R
MANITOWISH WTR FLURRIES  19  17  91 S7        29.79R WCI  10
ARBOR VITAE    LGT SNOW  22  19  89 S3        29.79S
EAGLE RIVER    FLURRIES  20  16  84 CALM      29.79S
LAND O LAKES   LGT SNOW  20  18  90 SE5       29.80S
RHINELANDER    LGT SNOW  19  16  88 SE5       29.81R FOG
PHILLIPS       LGT SNOW  20  19  93 CALM      29.79R
ANTIGO         CLOUDY    19  18  96 SE5       29.82R
TOMAHAWK       LGT SNOW  19  17  92 CALM      29.82R
MERRILL        FLURRIES  20  19  92 CALM      29.82R
$$

WIZ013-073-270100-
NORTHEAST WISCONSIN

CITY           SKY/WX    TMP DP  RH WIND       PRES   REMARKS
IRON MOUNTAIN  FLURRIES  22  17  81 SE6       29.85R
MARINETTE      CLOUDY    25  21  86 SE15      29.89R
OCONTO         CLOUDY    25  22  87 CALM      29.89R
$$

WIZ017-030-035>037-045-270100-
CENTRAL WISCONSIN

CITY           SKY/WX    TMP DP  RH WIND       PRES   REMARKS
MEDFORD        LGT SNOW  20  19  94 SE3       29.80R
WAUSAU         CLOUDY    21  18  88 SE6       29.82R
MOSINEE        FLURRIES  21  21 100 SE3       29.84R
MARSHFIELD     CLOUDY    23  20  88 S6        29.81R
WISC RAPIDS    FRZ RAIN  23  20  88 SE3       29.85R FOG
STEVENS POINT  CLOUDY    20  19  93 S5        29.84R
WAUPACA        MIX PCPN  26  23  89 SE3       29.86S
SHAWANO        LGT SNOW  26  22  84 CALM      29.88R
CLINTONVILLE   CLOUDY    25  21  86 S5        29.87R
$$

WIZ038-039-048-051-270100-
FOX VALLEY

CITY           SKY/WX    TMP DP  RH WIND       PRES   REMARKS
NWS GREEN BAY  CLOUDY    25  20  81 SE6       29.88R
APPLETON       LGT SNOW  25  19  80 SE8       29.87R
OSHKOSH        CLOUDY    24  20  84 SE7       29.86R
FOND DU LAC    LGT SNOW  24  21  88 SE7       29.87R VSB 3/4
$$

WIZ022-050-052-270100-
EAST CENTRAL WISCONSIN

CITY           SKY/WX    TMP DP  RH WIND       PRES   REMARKS
STURGEON BAY   CLOUDY    25  18  74 SE9       29.91R
MANITOWOC      CLOUDY    27  23  85 S10       29.89S
SHEBOYGAN      CLOUDY    26  20  77 S6        29.88R
$$

LMZ563-521-522-541>543-270100-
LAKESHORE

STATION/POSITION TIME  TEMP    WIND        PRES    VSBY  WAVE
                       AIR SEA DIR/SP/G                  HT/PER
                 (UTC) (F)     (DEG/KT/KT) (MB)    (MI)  (FT/S)
SHEBOYGAN LKSHOR 0000   28     140/ 17/ 18 1013.3R
KEWAUNEE LKSHORE 0000   28     170/ 13/ 18 1011.3F
NORTHPORT PIER   0000   25     130/ 15/ 17 1013.2S
SISTER BAY LKSHO 0000   24     170/ 10/ 13   N/A
CHAMBERS ISLAND  0000   24     120/  5/  9 1012.9R
MENOMINEE LKSHOR 0000   25     110/ 10     1013.1R
$$


USA.gov is the U.S. government's official web portal to all federal, state and local government web resources and services.